Norris Observed Data For Previous 48 Hours

Caption
Day and Hour Reservoir Elevation (behind dam)* Tailwater Elevation (below dam)* Average Hourly Discharge*
1/16/2019 2 AM EST 1,002.69 828.69 12,416
1/16/2019 3 AM EST 1,002.66 828.75 12,410
1/16/2019 4 AM EST 1,002.64 828.79 12,408
1/16/2019 5 AM EST 1,002.61 828.81 12,407
1/16/2019 6 AM EST 1,002.58 828.76 12,398
1/16/2019 7 AM EST 1,002.55 828.73 12,402
1/16/2019 8 AM EST 1,002.53 828.86 12,403
1/16/2019 9 AM EST 1,002.51 828.79 12,402
1/16/2019 10 AM EST 1,002.48 828.79 12,404
1/16/2019 11 AM EST 1,002.47 828.75 12,403
1/16/2019 12 PM EST 1,002.45 828.72 12,400
1/16/2019 1 PM EST 1,002.41 828.73 12,429
1/16/2019 2 PM EST 1,002.39 828.83 12,433
1/16/2019 3 PM EST 1,002.35 828.87 12,440
1/16/2019 4 PM EST 1,002.33 828.78 12,432
1/16/2019 5 PM EST 1,002.30 828.86 12,422
1/16/2019 6 PM EST 1,002.29 828.82 12,421
1/16/2019 7 PM EST 1,002.25 828.89 12,429
1/16/2019 8 PM EST 1,002.23 828.82 12,418
1/16/2019 9 PM EST 1,002.22 828.77 12,399
1/16/2019 10 PM EST 1,002.17 828.70 12,387
1/16/2019 11 PM EST 1,002.17 828.76 12,388
1/17/2019 12 AM EST 1,002.14 828.80 12,385
1/17/2019 1 AM EST 1,002.11 828.75 12,398
1/17/2019 2 AM EST 1,002.09 828.80 12,384
1/17/2019 3 AM EST 1,002.05 828.84 12,392
1/17/2019 4 AM EST 1,002.04 828.75 12,391
1/17/2019 5 AM EST 1,002.00 828.78 12,398
1/17/2019 6 AM EST 1,001.97 828.83 12,346
1/17/2019 7 AM EST 1,001.96 828.72 12,366
1/17/2019 8 AM EST 1,001.93 828.73 12,376
1/17/2019 9 AM EST 1,001.91 828.80 12,374
1/17/2019 10 AM EST 1,001.87 828.79 12,376
1/17/2019 11 AM EST 1,001.84 828.81 12,376
1/17/2019 12 PM EST 1,001.86 828.85 12,377
1/17/2019 1 PM EST 1,001.82 828.89 12,383
1/17/2019 2 PM EST 1,001.81 828.72 12,371
1/17/2019 3 PM EST 1,001.76 828.78 12,370
1/17/2019 4 PM EST 1,001.73 828.77 12,373
1/17/2019 5 PM EST 1,001.75 826.38 12,382
1/17/2019 6 PM EST 1,001.75 825.17 4,239
1/17/2019 7 PM EST 1,001.71 825.17 4,239
1/17/2019 8 PM EST 1,001.70 825.21 4,239
1/17/2019 9 PM EST 1,001.72 825.21 4,240
1/17/2019 10 PM EST 1,001.72 825.19 4,237
1/17/2019 11 PM EST 1,001.72 825.16 4,233
1/18/2019 12 AM EST 1,001.71 825.17 4,239

Elevations are in feet above sea level. Discharges are in cubic feet per second and are reported at the end of the hour.